Location: *
(45.9500°N, 9.0833°E)
Time: 10:38:07
(UTC+00:00)

Vanguard 1 Rocket - Visible Passes

Search period start: 13 June 2021 00:00
Search period end: 23 June 2021 00:00
Orbit: 651 x 4225 km, 34.3° (Epoch: 12 June)

Date Brightness Start Highest point End Pass type
(mag) Time Alt. Az. Time Alt. Az. Time Alt. Az.
13 Jun 10.3 01:11:23 10° WSW 01:27:38 59° S 01:52:35 10° ESE visible
13 Jun 9.7 21:37:20 10° SSW 21:46:59 36° SE 22:03:38 10° E visible
14 Jun 10.0 00:00:13 10° WSW 00:13:58 57° S 00:37:27 10° ESE visible
14 Jun 10.5 02:25:55 10° W 02:43:54 53° SSW 03:08:32 10° SE visible
14 Jun 9.8 20:28:35 10° S 20:35:56 23° SE 20:47:16 10° E visible
14 Jun 9.7 22:49:38 10° SW 23:01:06 51° SSE 23:21:46 10° E visible
15 Jun 10.2 01:14:08 10° W 01:29:51 57° S 01:54:25 10° ESE visible
15 Jun 9.6 21:39:41 10° SW 21:49:06 40° SSE 22:05:55 10° E visible
16 Jun 9.9 00:02:57 10° WSW 00:16:16 57° S 00:39:23 10° ESE visible
16 Jun 10.5 02:28:44 10° W 02:45:59 48° SSW 03:09:58 10° SE visible
16 Jun 9.6 20:30:33 10° SSW 20:37:56 27° SE 20:49:59 10° E visible
16 Jun 9.6 22:52:19 10° WSW 23:03:25 52° SSE 23:23:49 10° E visible
17 Jun 10.2 01:16:58 10° W 01:32:05 53° SSW 01:56:05 10° SE visible
17 Jun 9.4 21:42:14 10° SW 21:51:21 43° SSE 22:08:07 10° E visible
18 Jun 9.9 00:05:46 10° WSW 00:18:38 55° S 00:41:13 10° ESE visible
18 Jun 10.6 02:31:40 10° W 02:48:03 43° SSW 03:11:07 10° SE visible
18 Jun 9.4 20:32:47 10° SSW 20:40:06 31° SE 20:52:31 10° E visible
18 Jun 9.5 22:55:05 10° WSW 23:05:49 53° S 23:25:48 10° ESE visible
19 Jun 10.2 01:19:50 10° W 01:34:22 49° SSW 01:57:32 10° SE visible
19 Jun 9.3 21:44:54 10° SW 21:53:44 46° SSE 22:10:16 10° E visible
20 Jun 9.8 00:08:38 10° WSW 00:21:03 52° S 00:42:56 10° ESE visible
20 Jun 10.6 02:34:44 10° W 02:50:09 38° SSW 03:11:55 10° SSE visible
20 Jun 9.2 20:35:13 10° SSW 20:42:23 35° SSE 20:54:56 10° E visible
20 Jun 9.5 22:57:55 10° WSW 23:08:18 52° S 23:27:43 10° ESE visible
21 Jun 10.2 01:22:49 10° W 01:36:39 44° SSW 01:58:44 10° SE visible
21 Jun 9.2 21:47:39 10° WSW 21:56:13 47° SSE 22:12:22 10° ESE visible
22 Jun 9.8 00:11:35 10° W 00:23:29 49° S 00:44:28 10° SE visible
22 Jun 10.7 02:38:01 10° W 02:52:17 32° SSW 03:12:16 10° SSE visible
22 Jun 9.0 20:37:50 10° SW 20:44:48 37° SSE 20:57:17 10° E visible
22 Jun 9.4 23:00:50 10° WSW 23:10:50 50° S 23:29:32 10° ESE visible
